Location: Владивосток
(43.1151°N, 131.8856°E)
Time: 02:18:14
(UTC+10:00)

FO-29 - Pass Details

Date: 02 May 2024
Orbit: 801 x 1320 km, 98.6° (Epoch: 19 May)

Event Time Altitude Azimuth Distance (km) Brightness Sun altitude
Rises 02:57:39 0° 14° (NNE) 4,286 14.0 -26.5°
Reaches altitude 10° 03:00:21 10° 16° (NNE) 3,338 13.2 -26.2°
Maximum altitude 03:08:15 80° 103° (ESE) 1,341 10.1 -25.5°
Enters shadow 03:11:18 42° 184° (S) 1,786 10.4 -25.2°
